Regional Weather Roundup
Issued by NWS

Home | Current Version | Previous Version | Graphics & Text | Print | Product List | Glossary On
Versions: 1 2 3 4 5 6 7 8 9 10 11 12 13 14 15 16 17 18 19 20 21 22 23 24 25 26 27 28 29 30 31 32 33 34 35 36 37 38 39 40 41 42 43 44 45 46 47 48 49 50
000
ASUS43 KLMK 141910
RWRKY
KENTUCKY REGIONAL WEATHER ROUNDUP
NATIONAL WEATHER SERVICE LOUISVILLE KY
300 PM EDT SUN SEP 14 2014

NOTE "FAIR" INDICATES FEW OR NO CLOUDS BELOW 12,000 FEET
WITH NO SIGNIFICANT WEATHER AND/OR OBSTRUCTIONS TO VISIBILITY.

KYZ001>023-026-027-061>063-070>075-142000-
WESTERN AND SOUTH CENTRAL KENTUCKY

CITY           SKY/WX    TMP DP  RH WIND       PRES   REMARKS
PADUCAH        SUNNY     74  49  41 NW6       30.23F
HENDERSON      SUNNY     68  46  45 E3        30.24F
OWENSBORO      SUNNY     70  48  45 NE5       30.24F
HOPKINSVILLE   SUNNY     73  54  50 VRB3      30.22F
BOWLING GREEN  SUNNY     73  51  46 CALM      30.22F
GLASGOW        SUNNY     74  51  44 N5        30.22F
$$

KYZ024-025-028>034-038-045-046-053-142000-
NORTH CENTRAL KENTUCKY

CITY           SKY/WX    TMP DP  RH WIND       PRES   REMARKS
LOUISVILLE/SDF MOSUNNY   72  47  40 SE3       30.24F
LOUISVILLE/LOU SUNNY     70  46  42 CALM      30.24F
FORT KNOX      SUNNY     68  49  50 VRB3      30.23F
$$

KYZ035>037-039>044-047>052-055>060-089>105-142000-
NORTHEAST KENTUCKY

CITY           SKY/WX    TMP DP  RH WIND       PRES   REMARKS
LEXINGTON      SUNNY     71  48  43 VRB6      30.24F
COVINGTON      MOSUNNY   69  46  43 NW3       30.25F
FRANKFORT      SUNNY     70  47  43 MISG      30.24F
$$

KYZ054-064>069-076>088-106>120-142000-
SOUTHEAST KENTUCKY

CITY           SKY/WX    TMP DP  RH WIND       PRES   REMARKS
JACKSON        MOSUNNY   66  52  60 CALM      30.24F
LONDON         MOSUNNY   72  57  59 CALM      30.23F
SOMERSET       NOT AVBL
MIDDLESBORO    PTSUNNY   73  62  68 CALM      30.22F
MONTICELLO     MOCLDY    73  60  63 VRB5      30.23F
$$




USA.gov is the U.S. government's official web portal to all federal, state and local government web resources and services.